FENGYUN 4B (48808 NORAD) Tracking and Keplerian Element Data

This shows tracking and keplerian element data for the satellite.

Feedback or suggestion? Click here.




ElementValue
Catalog48808
NameFENGYUN 4B
Epoch Orbit28
Epoch Day170.63118078
Epoch Year2021
RAAN245.965
Inclination0.0665
Eccentricity1.52E-05
Argument of Perigee269.9853
Mean Anonmoly102.9576
Mean Motion1.00277123
Decay Rate-3.5E-06
L11 48808U 21047A 21170.63118078 -.00000350 00000-0 00000-0 0 9996
L22 48808 0.0665 245.9650 0000152 269.9853 102.9576 1.00277123 281

Live tracking and technical data element details for FENGYUN 4B (NORAD 48808). FENGYUN 4B can be tracked NOW for your location showing map with azimuth and elevation plus other details from your city location.

Track the satellite on the map from your city or location and see movement details for azimuth, elevation, latitude, longitude, range, height, and movement on the map or in text.







IsCatalogInMostPopularTable: catalog: 48808, numindb: 3
Update: records affected: 1



GetName: 48808 FENGYUN 4B

Hit Count: updated at: Mon, 21 Jun 2021 04:24:22 GMT